Orbital Elements at Epoch 2459200.5 (2020-Dec-17.0) TDB
Reference: JPL 15 (heliocentric ecliptic J2000)
Element | Value | Uncertainty (1-sigma) | Units |
e | .1873880005443044 | 4.4569e-08 | |
a | 2.341437815434966 | 1.2109e-08 | au |
q | 1.902680464801784 | 1.0464e-07 | au |
i | 2.559254463501431 | 6.1742e-06 | deg |
node | 24.93535945055701 | 9.9857e-05 | deg |
peri | 235.24706915356 | 0.00010123 | deg |
M | 230.0906116232075 | 1.7327e-05 | deg |
tp | 2459672.737429684927 (2022-Apr-03.23742968) | 6.4963e-05 | TDB |
period | 1308.646563660862 3.58 | 1.0152e-05 2.779e-08 | d yr |
n | .2750933750919891 | 2.134e-09 | deg/d |
Q | 2.780195166068148 | 1.4378e-08 | au |
|
| | Orbit Determination Parameters
Additional Information
|